TimePDT,TemperatureF,Dew PointF,Humidity,Sea Level PressureIn,VisibilityMPH,Wind Direction,Wind SpeedMPH,Gust SpeedMPH,PrecipitationIn,Events,Conditions,WindDirDegrees,DateUTC
12:53 AM,70.0,46.0,42,29.79,10.0,West,8.1,19.6,N/A,,Clear,280,2013-03-21 07:53:00
1:53 AM,66.9,46.9,49,29.77,10.0,SE,3.5,-,N/A,,Clear,130,2013-03-21 08:53:00
2:53 AM,66.9,46.9,49,29.77,10.0,SE,6.9,-,N/A,,Clear,140,2013-03-21 09:53:00
3:53 AM,64.9,46.9,52,29.75,10.0,South,3.5,-,N/A,,Clear,170,2013-03-21 10:53:00
4:53 AM,64.0,48.0,56,29.75,10.0,Calm,Calm,-,N/A,,Clear,0,2013-03-21 11:53:00
5:53 AM,64.0,46.9,54,29.75,10.0,East,3.5,-,N/A,,Clear,80,2013-03-21 12:53:00
6:53 AM,63.0,48.0,58,29.77,10.0,NNE,4.6,-,N/A,,Clear,30,2013-03-21 13:53:00
7:53 AM,64.9,48.0,54,29.78,10.0,Calm,Calm,-,N/A,,Clear,0,2013-03-21 14:53:00
8:53 AM,68.0,45.0,43,29.80,10.0,Calm,Calm,-,N/A,,Mostly Cloudy,0,2013-03-21 15:53:00
9:53 AM,73.0,44.1,35,29.80,10.0,Calm,Calm,-,N/A,,Clear,0,2013-03-21 16:53:00
10:53 AM,77.0,41.0,28,29.79,10.0,West,4.6,-,N/A,,Scattered Clouds,270,2013-03-21 17:53:00
11:53 AM,81.0,37.0,21,29.78,10.0,Variable,3.5,-,N/A,,Scattered Clouds,0,2013-03-21 18:53:00
12:53 PM,84.0,33.1,16,29.75,10.0,WNW,3.5,-,N/A,,Clear,290,2013-03-21 19:53:00
1:53 PM,87.1,28.9,12,29.71,10.0,NW,3.5,-,N/A,,Scattered Clouds,310,2013-03-21 20:53:00
2:53 PM,88.0,32.0,14,29.68,10.0,NW,12.7,18.4,N/A,,Clear,310,2013-03-21 21:53:00
3:53 PM,87.1,37.9,18,29.66,10.0,NW,16.1,25.3,N/A,,Scattered Clouds,320,2013-03-21 22:53:00
4:53 PM,86.0,39.9,20,29.65,10.0,NW,20.7,27.6,N/A,,Clear,320,2013-03-21 23:53:00
5:53 PM,82.0,44.1,26,29.65,10.0,NW,13.8,24.2,N/A,,Clear,310,2013-03-22 00:53:00
6:53 PM,79.0,43.0,28,29.65,10.0,NW,20.7,26.5,N/A,,Clear,320,2013-03-22 01:53:00
7:53 PM,77.0,41.0,28,29.66,10.0,NW,16.1,-,N/A,,Clear,320,2013-03-22 02:53:00
8:53 PM,75.0,43.0,32,29.66,10.0,NW,13.8,25.3,N/A,,Clear,310,2013-03-22 03:53:00
10:53 PM,72.0,44.1,37,29.66,10.0,NW,17.3,25.3,N/A,,Clear,320,2013-03-22 05:53:00
11:53 PM,70.0,43.0,38,29.65,10.0,East,3.5,-,N/A,,Clear,100,2013-03-22 06:53:00